Time,TemperatureF,DewpointF,PressureIn,WindDirection,WindDirectionDegrees,WindSpeedMPH,WindSpeedGustMPH,Humidity,HourlyPrecipIn,Conditions,Clouds,dailyrainin,SolarRadiationWatts/m^2,SoftwareType,DateUTC
2018-01-23 00:02:00,28.4,28.4,29.50,North,6,9.0,9.0,100,0.00,,,0.08,0,Wunderground v.1.15,2018-01-23 06:02:00,
2018-01-23 00:22:00,27.5,27.5,29.50,North,0,8.0,9.0,100,0.00,,,0.08,0,Wunderground v.1.15,2018-01-23 06:22:00,
2018-01-23 00:32:00,27.3,27.3,29.50,North,0,9.0,12.0,100,0.00,,,0.08,0,Wunderground v.1.15,2018-01-23 06:32:00,
2018-01-23 00:42:00,27.0,27.0,29.50,NE,34,10.0,10.0,100,0.00,,,0.08,0,Wunderground v.1.15,2018-01-23 06:42:00,
2018-01-23 00:52:00,26.7,26.7,29.50,North,0,10.0,10.0,100,0.00,,,0.08,0,Wunderground v.1.15,2018-01-23 06:52:00,
2018-01-23 01:02:00,26.4,26.4,29.50,NNE,32,10.0,10.0,100,0.00,,,0.08,0,Wunderground v.1.15,2018-01-23 07:02:00,
2018-01-23 01:12:00,26.1,26.1,29.51,North,349,10.0,10.0,100,0.00,,,0.08,0,Wunderground v.1.15,2018-01-23 07:12:00,
2018-01-23 01:22:00,26.0,26.0,29.51,North,357,9.0,9.0,100,0.00,,,0.08,0,Wunderground v.1.15,2018-01-23 07:22:00,
2018-01-23 01:32:00,26.0,26.0,29.50,NE,34,11.0,11.0,100,0.00,,,0.08,0,Wunderground v.1.15,2018-01-23 07:32:00,
2018-01-23 01:52:00,26.0,26.0,29.51,NE,37,9.0,9.0,100,0.00,,,0.08,0,Wunderground v.1.15,2018-01-23 07:52:00,
2018-01-23 02:12:00,26.0,26.0,29.52,NNE,17,8.0,12.0,100,0.00,,,0.08,0,Wunderground v.1.15,2018-01-23 08:12:00,
2018-01-23 02:22:00,25.8,25.8,29.52,North,7,8.0,8.0,100,0.00,,,0.08,0,Wunderground v.1.15,2018-01-23 08:22:00,
2018-01-23 02:32:00,25.7,25.7,29.53,NNE,18,10.0,10.0,100,0.00,,,0.08,0,Wunderground v.1.15,2018-01-23 08:32:00,
2018-01-23 02:42:00,25.7,25.7,29.54,North,8,11.0,11.0,100,0.00,,,0.08,0,Wunderground v.1.15,2018-01-23 08:42:00,
2018-01-23 02:52:00,25.7,25.7,29.54,North,10,8.0,8.0,100,0.00,,,0.08,0,Wunderground v.1.15,2018-01-23 08:52:00,
2018-01-23 03:02:00,25.7,25.7,29.54,NE,40,6.0,7.0,100,0.00,,,0.08,0,Wunderground v.1.15,2018-01-23 09:02:00,
2018-01-23 03:12:00,26.0,26.0,29.54,NNW,333,8.0,14.0,100,0.00,,,0.08,0,Wunderground v.1.15,2018-01-23 09:12:00,
2018-01-23 03:32:00,25.8,25.8,29.55,North,10,10.0,11.0,100,0.00,,,0.08,0,Wunderground v.1.15,2018-01-23 09:32:00,
2018-01-23 03:42:00,25.7,25.7,29.55,NNE,18,9.0,9.0,100,0.00,,,0.08,0,Wunderground v.1.15,2018-01-23 09:42:00,
2018-01-23 03:52:00,25.6,25.6,29.55,North,0,9.0,9.0,100,0.00,,,0.08,0,Wunderground v.1.15,2018-01-23 09:52:00,
2018-01-23 04:12:00,25.6,25.6,29.56,NNE,13,10.0,12.0,100,0.00,,,0.08,0,Wunderground v.1.15,2018-01-23 10:12:00,
2018-01-23 04:22:00,25.6,25.6,29.56,North,6,9.0,9.0,100,0.00,,,0.08,0,Wunderground v.1.15,2018-01-23 10:22:00,
2018-01-23 04:32:00,25.7,25.7,29.56,North,1,9.0,11.0,100,0.00,,,0.08,0,Wunderground v.1.15,2018-01-23 10:32:00,
2018-01-23 04:42:00,25.7,25.7,29.56,NNW,335,9.0,9.0,100,0.00,,,0.08,0,Wunderground v.1.15,2018-01-23 10:42:00,
2018-01-23 04:52:00,25.7,25.7,29.56,North,0,10.0,10.0,100,0.00,,,0.08,0,Wunderground v.1.15,2018-01-23 10:52:00,
2018-01-23 05:02:00,25.6,25.6,29.57,NNW,346,11.0,11.0,100,0.00,,,0.08,0,Wunderground v.1.15,2018-01-23 11:02:00,
2018-01-23 05:12:00,25.4,24.9,29.58,NNW,339,11.0,11.0,98,0.00,,,0.08,0,Wunderground v.1.15,2018-01-23 11:12:00,
2018-01-23 05:22:00,25.4,24.9,29.58,North,0,10.0,10.0,98,0.00,,,0.08,0,Wunderground v.1.15,2018-01-23 11:22:00,
2018-01-23 05:32:00,25.3,24.8,29.58,NNW,337,11.0,11.0,98,0.00,,,0.08,0,Wunderground v.1.15,2018-01-23 11:32:00,
2018-01-23 05:42:00,25.3,24.8,29.60,NNW,347,12.0,19.0,98,0.00,,,0.08,0,Wunderground v.1.15,2018-01-23 11:42:00,
2018-01-23 05:52:00,25.1,24.6,29.60,North,357,12.0,13.0,98,0.00,,,0.08,0,Wunderground v.1.15,2018-01-23 11:52:00,
2018-01-23 06:02:00,25.1,24.6,29.61,North,3,12.0,12.0,98,0.00,,,0.08,0,Wunderground v.1.15,2018-01-23 12:02:00,
2018-01-23 06:12:00,25.0,24.5,29.61,North,0,9.0,11.0,98,0.00,,,0.08,0,Wunderground v.1.15,2018-01-23 12:12:00,
2018-01-23 06:22:00,24.8,24.3,29.61,NNW,336,11.0,12.0,98,0.00,,,0.08,0,Wunderground v.1.15,2018-01-23 12:22:00,
2018-01-23 06:32:00,24.7,24.0,29.61,North,0,13.0,13.0,97,0.00,,,0.08,0,Wunderground v.1.15,2018-01-23 12:32:00,
2018-01-23 06:42:00,24.7,23.7,29.62,NNE,28,9.0,9.0,96,0.00,,,0.08,0,Wunderground v.1.15,2018-01-23 12:42:00,
2018-01-23 06:52:00,24.4,22.9,29.62,North,11,10.0,10.0,94,0.00,,,0.08,0,Wunderground v.1.15,2018-01-23 12:52:00,
2018-01-23 07:02:00,24.4,22.4,29.62,NNW,336,13.0,13.0,92,0.00,,,0.08,0,Wunderground v.1.15,2018-01-23 13:02:00,
2018-01-23 07:12:00,24.4,21.9,29.63,North,353,12.0,12.0,90,0.00,,,0.08,0,Wunderground v.1.15,2018-01-23 13:12:00,
2018-01-23 07:22:00,24.4,22.2,29.63,NNW,347,12.0,12.0,91,0.00,,,0.08,0,Wunderground v.1.15,2018-01-23 13:22:00,
2018-01-23 07:32:00,24.4,22.2,29.63,NNE,13,11.0,11.0,91,0.00,,,0.08,0,Wunderground v.1.15,2018-01-23 13:32:00,
2018-01-23 07:42:00,24.4,21.9,29.65,North,349,12.0,14.0,90,0.00,,,0.08,7,Wunderground v.1.15,2018-01-23 13:42:00,
2018-01-23 07:52:00,24.4,21.9,29.65,North,0,11.0,11.0,90,0.00,,,0.08,12,Wunderground v.1.15,2018-01-23 13:52:00,
2018-01-23 08:02:00,24.4,22.2,29.65,North,8,11.0,12.0,91,0.00,,,0.08,19,Wunderground v.1.15,2018-01-23 14:02:00,
2018-01-23 08:12:00,24.5,22.2,29.66,NNW,342,10.0,10.0,91,0.00,,,0.08,19,Wunderground v.1.15,2018-01-23 14:12:00,
2018-01-23 08:22:00,24.7,22.4,29.66,NNW,342,9.0,9.0,91,0.00,,,0.08,28,Wunderground v.1.15,2018-01-23 14:22:00,